Regional Weather Roundup
Issued by NWS

Home | Current Version | Previous Version | Text Only | Print | Product List | Glossary Off
Versions: 1 2 3 4 5 6 7 8 9 10 11 12 13 14 15 16 17 18 19 20 21 22 23 24 25 26 27 28 29 30 31 32 33 34 35 36 37 38 39 40 41 42 43 44 45 46 47 48 49 50

000
ASUS43 KIND 241559
RWRIN

WEATHER ROUNDUP FOR INDIANA
NATIONAL WEATHER SERVICE INDIANAPOLIS IN
1100 AM EST TUE JAN 24 2017

NOTE: "FAIR" INDICATES FEW OR NO CLOUDS BELOW 12,000 FEET WITH NO
SIGNIFICANT WEATHER AND/OR OBSTRUCTIONS TO VISIBILITY.

* - STATION DOES NOT REPORT WEATHER SUCH AS PRECIPITATION OR FOG.

+ - STATION NOT QUALITY CONTROLLED BY THE NATIONAL WEATHER SERVICE.
    USE DATA WITH CAUTION...ESPECIALLY DEWPOINT AND RELATIVE
    HUMIDITY OBSERVATIONS.

INZ001>003-010>013-019-020-241700-
NORTHWEST INDIANA

CITY           SKY/WX    TMP DP  RH WIND       PRES   REMARKS
GARY /AIRPORT/ CLOUDY    39  32  75 NW7       29.90S
KNOX *+        CLOUDY    37  21  52 NW7       29.89R
MONTICELLO +   CLOUDY    39  32  78 NW6       29.89S

$$

LMZ046-743>745-241700-
SOUTHERN LAKE MICHIGAN

STATION/POSITION TIME  TEMP    WIND        PRES    WAVE
                       AIR SEA DIR/SP/G            HT
                 (UTC) (F)     (DEG/KT/KT) (MB)    (FT)
BURNS HARBOR     1540   35     320/  5/  7 1013.2R

$$

INZ004-005-014>016-021>024-241700-
NORTH CENTRAL INDIANA

CITY           SKY/WX    TMP DP  RH WIND       PRES   REMARKS
ELKHART        CLOUDY    39  34  81 NW14      29.86S
GOSHEN         CLOUDY    39  33  79 NW13      29.85F
PERU/GRISSOM   CLOUDY    39  36  87 NW10      29.87R
SOUTH BEND     CLOUDY    38  35  89 NW12      29.87F

$$

INZ006>009-017-018-025>027-241700-
NORTHEAST INDIANA

CITY           SKY/WX    TMP DP  RH WIND       PRES   REMARKS
ANGOLA *+      CLOUDY    37  28  70 W9        29.84R
FORT WAYNE     PTSUNNY   41  34  76 NW10      29.85R
KENDALLVILLE + CLOUDY    38  35  89 N12       29.84S

$$

INZ028-029-035-036-043>045-051>053-241700-
WEST CENTRAL INDIANA

CITY           SKY/WX    TMP DP  RH WIND       PRES   REMARKS
CRAWFORDSVL +  CLOUDY    37  34  87 CALM      29.89F
LAFAYETTE      CLOUDY    39  34  82 N5        29.90S
TERRE HAUTE    CLOUDY    41  33  73 NE5       29.92R

$$

INZ030>032-037>040-046>048-054>057-064-065-241700-
CENTRAL INDIANA

CITY           SKY/WX    TMP DP  RH WIND       PRES   REMARKS
ANDERSON       CLOUDY    39  36  87 W12       29.89R
COLUMBUS       CLOUDY    39  37  93 NW7       29.91R
INDIANAPOLIS   CLOUDY    40  32  73 N7        29.89S
-EAGLE CREEK   CLOUDY    41  32  70 NW7       29.88S
MT COMFORT *+  CLOUDY    37  34  87 N12       29.89S
SHELBYVILLE    CLOUDY    41  33  73 N12       29.89R

$$

INZ033-034-041-042-049-050-058-059-241700-
EAST CENTRAL INDIANA

CITY           SKY/WX    TMP DP  RH WIND       PRES   REMARKS
MUNCIE         CLOUDY    41  35  79 NW10      29.87R

$$

INZ060-061-067>069-081>083-085>088-241700-
SOUTHWEST INDIANA

CITY           SKY/WX    TMP DP  RH WIND       PRES   REMARKS
EVANSVILLE     CLOUDY    42  34  73 CALM      29.94F
HUNTINGBURG *+ CLOUDY    41  34  76 W3        29.95R

$$

INZ062-063-066-070>080-084-089>092-241700-
SOUTH CENTRAL AND SOUTHEAST INDIANA

CITY           SKY/WX    TMP DP  RH WIND       PRES   REMARKS
BLOOMINGTON    CLOUDY    41  32  70 NW5       29.91R
MADISON *+     CLOUDY    41  34  75 NW7       29.92R

$$




USA.gov is the U.S. government's official web portal to all federal, state and local government web resources and services.